TimeCST,TemperatureF,Dew PointF,Humidity,Sea Level PressureIn,VisibilityMPH,Wind Direction,Wind SpeedMPH,Gust SpeedMPH,PrecipitationIn,Events,Conditions,WindDirDegrees,DateUTC
12:15 AM,1.4,-2.2,85,29.67,10.0,NW,11.5,-,N/A,,Partly Cloudy,310,2013-01-31 06:15:00
12:35 AM,1.4,-2.2,85,29.67,10.0,NW,11.5,17.3,N/A,,Mostly Cloudy,310,2013-01-31 06:35:00
12:55 AM,1.4,-2.2,85,29.68,10.0,NW,13.8,18.4,N/A,,Scattered Clouds,320,2013-01-31 06:55:00
1:15 AM,1.4,-4.0,78,29.69,10.0,NW,15.0,20.7,N/A,,Clear,310,2013-01-31 07:15:00
1:35 AM,-0.4,-4.0,85,29.69,10.0,NW,12.7,-,N/A,,Mostly Cloudy,310,2013-01-31 07:35:00
1:55 AM,-0.4,-4.0,85,29.70,10.0,NW,16.1,19.6,N/A,,Overcast,320,2013-01-31 07:55:00
2:15 AM,-0.4,-5.8,78,29.71,10.0,NW,15.0,-,N/A,,Overcast,320,2013-01-31 08:15:00
2:35 AM,-0.4,-5.8,78,29.71,10.0,NW,15.0,19.6,N/A,,Overcast,310,2013-01-31 08:35:00
2:55 AM,-0.4,-5.8,78,29.71,10.0,NW,15.0,21.9,N/A,,Overcast,320,2013-01-31 08:55:00
3:15 AM,-0.4,-5.8,78,29.72,9.0,NW,12.7,-,N/A,,Overcast,310,2013-01-31 09:15:00
3:35 AM,-0.4,-5.8,78,29.72,7.0,NW,12.7,-,N/A,,Overcast,310,2013-01-31 09:35:00
3:55 AM,-0.4,-5.8,78,29.73,3.0,NW,13.8,-,N/A,,Overcast,310,2013-01-31 09:55:00
4:15 AM,-0.4,-7.6,72,29.74,5.0,NW,16.1,19.6,N/A,,Overcast,310,2013-01-31 10:15:00
4:35 AM,-2.2,-7.6,78,29.74,5.0,NW,15.0,-,N/A,,Overcast,320,2013-01-31 10:35:00
4:55 AM,-2.2,-7.6,78,29.75,3.0,NW,17.3,20.7,N/A,,Overcast,310,2013-01-31 10:55:00
5:15 AM,-2.2,-7.6,78,29.76,4.0,NW,16.1,23.0,N/A,,Overcast,320,2013-01-31 11:15:00
5:35 AM,-2.2,-9.4,71,29.76,5.0,NW,15.0,-,N/A,,Overcast,310,2013-01-31 11:35:00
5:55 AM,-2.2,-9.4,71,29.77,5.0,NW,16.1,-,N/A,,Overcast,320,2013-01-31 11:55:00
6:15 AM,-4.0,-9.4,78,29.78,7.0,NW,16.1,-,N/A,,Overcast,310,2013-01-31 12:15:00
6:35 AM,-4.0,-9.4,78,29.78,9.0,NW,15.0,19.6,N/A,,Overcast,310,2013-01-31 12:35:00
6:55 AM,-4.0,-9.4,78,29.80,9.0,NW,12.7,-,N/A,,Mostly Cloudy,310,2013-01-31 12:55:00
7:15 AM,-4.0,-9.4,78,29.80,7.0,NW,13.8,-,N/A,,Overcast,310,2013-01-31 13:15:00
7:35 AM,-4.0,-9.4,78,29.82,5.0,NW,15.0,-,N/A,,Overcast,310,2013-01-31 13:35:00
7:55 AM,-4.0,-9.4,78,29.83,3.0,NW,15.0,20.7,N/A,,Overcast,310,2013-01-31 13:55:00
8:15 AM,-5.8,-9.4,84,29.84,4.0,NW,13.8,20.7,N/A,,Overcast,320,2013-01-31 14:15:00
8:35 AM,-5.8,-9.4,84,29.86,9.0,NW,13.8,-,N/A,,Mostly Cloudy,310,2013-01-31 14:35:00
8:55 AM,-5.8,-9.4,84,29.86,10.0,NW,12.7,21.9,N/A,,Mostly Cloudy,310,2013-01-31 14:55:00
9:15 AM,-5.8,-11.2,77,29.88,10.0,NW,16.1,21.9,N/A,,Partly Cloudy,310,2013-01-31 15:15:00
9:35 AM,-5.8,-11.2,77,29.89,5.0,NW,17.3,27.6,N/A,,Mostly Cloudy,320,2013-01-31 15:35:00
9:55 AM,-4.0,-9.4,78,29.90,3.0,NW,18.4,24.2,N/A,,Overcast,310,2013-01-31 15:55:00
10:15 AM,-4.0,-11.2,71,29.90,5.0,NW,20.7,26.5,N/A,,Mostly Cloudy,310,2013-01-31 16:15:00
10:35 AM,-4.0,-11.2,71,29.92,5.0,NW,20.7,29.9,N/A,,Mostly Cloudy,320,2013-01-31 16:35:00
10:55 AM,-2.2,-9.4,71,29.92,7.0,NW,17.3,23.0,N/A,,Mostly Cloudy,310,2013-01-31 16:55:00
11:15 AM,-2.2,-9.4,71,29.93,10.0,NW,16.1,-,N/A,,Partly Cloudy,320,2013-01-31 17:15:00
11:35 AM,-2.2,-9.4,71,29.93,7.0,NW,20.7,26.5,N/A,,Mostly Cloudy,320,2013-01-31 17:35:00
11:55 AM,-2.2,-9.4,71,29.94,9.0,NW,19.6,24.2,N/A,,Mostly Cloudy,320,2013-01-31 17:55:00
12:15 PM,-2.2,-9.4,71,29.94,7.0,NW,20.7,-,N/A,,Mostly Cloudy,320,2013-01-31 18:15:00
12:35 PM,-0.4,-9.4,66,29.94,10.0,NNW,18.4,25.3,N/A,,Mostly Cloudy,330,2013-01-31 18:35:00
12:55 PM,-0.4,-7.6,72,29.94,9.0,NW,15.0,24.2,N/A,,Mostly Cloudy,320,2013-01-31 18:55:00
1:15 PM,-0.4,-9.4,66,29.94,9.0,NW,19.6,26.5,N/A,,Mostly Cloudy,320,2013-01-31 19:15:00
1:35 PM,-0.4,-7.6,72,29.95,9.0,NW,15.0,-,N/A,,Mostly Cloudy,310,2013-01-31 19:35:00
1:55 PM,-0.4,-7.6,72,29.96,6.0,NW,23.0,28.8,N/A,,Scattered Clouds,320,2013-01-31 19:55:00
2:15 PM,-0.4,-9.4,66,29.96,9.0,NW,15.0,26.5,N/A,,Partly Cloudy,320,2013-01-31 20:15:00
2:35 PM,-0.4,-9.4,66,29.97,9.0,NW,18.4,26.5,N/A,,Clear,320,2013-01-31 20:35:00
2:55 PM,-0.4,-9.4,66,29.97,9.0,NW,20.7,26.5,N/A,,Scattered Clouds,320,2013-01-31 20:55:00
3:15 PM,-0.4,-9.4,66,29.99,10.0,NW,20.7,-,N/A,,Mostly Cloudy,320,2013-01-31 21:15:00
3:35 PM,-0.4,-9.4,66,30.00,8.0,WNW,16.1,20.7,N/A,,Scattered Clouds,290,2013-01-31 21:35:00
3:55 PM,-2.2,-9.4,71,30.01,8.0,WNW,16.1,-,N/A,,Mostly Cloudy,290,2013-01-31 21:55:00
4:15 PM,-2.2,-9.4,71,30.02,10.0,WNW,12.7,-,N/A,,Scattered Clouds,300,2013-01-31 22:15:00
4:35 PM,-2.2,-9.4,71,30.02,10.0,WNW,13.8,-,N/A,,Partly Cloudy,300,2013-01-31 22:35:00
4:55 PM,-2.2,-11.2,66,30.03,10.0,WNW,16.1,21.9,N/A,,Mostly Cloudy,290,2013-01-31 22:55:00
5:15 PM,-4.0,-11.2,71,30.04,10.0,WNW,12.7,-,N/A,,Scattered Clouds,300,2013-01-31 23:15:00
5:35 PM,-5.8,-13.0,71,30.05,10.0,NW,15.0,21.9,N/A,,Clear,310,2013-01-31 23:35:00
5:55 PM,-5.8,-13.0,71,30.06,10.0,WNW,13.8,21.9,N/A,,Clear,290,2013-01-31 23:55:00
6:15 PM,-5.8,-14.8,65,30.07,10.0,WNW,12.7,17.3,N/A,,Clear,300,2013-02-01 00:15:00
6:35 PM,-7.6,-14.8,71,30.07,9.0,WNW,17.3,24.2,N/A,,Scattered Clouds,300,2013-02-01 00:35:00
6:55 PM,-9.4,-16.6,71,30.08,6.0,WNW,15.0,20.7,N/A,,Overcast,300,2013-02-01 00:55:00
7:15 PM,-9.4,-16.6,71,30.08,4.0,WNW,12.7,-,N/A,,Overcast,300,2013-02-01 01:15:00
7:35 PM,-11.2,-18.4,70,30.09,4.0,WNW,12.7,20.7,N/A,,Overcast,300,2013-02-01 01:35:00
7:55 PM,-11.2,-18.4,70,30.09,4.0,WNW,13.8,20.7,N/A,,Overcast,300,2013-02-01 01:55:00
8:15 PM,-11.2,-18.4,70,30.10,3.0,WNW,10.4,20.7,N/A,,Overcast,290,2013-02-01 02:15:00
8:35 PM,-13.0,-20.2,70,30.10,3.0,WNW,11.5,17.3,N/A,,Overcast,290,2013-02-01 02:35:00
8:55 PM,-14.8,-20.2,77,30.10,3.0,WNW,10.4,-,N/A,,Overcast,290,2013-02-01 02:55:00
9:15 PM,-14.8,-20.2,77,30.11,3.0,WNW,11.5,17.3,N/A,,Overcast,300,2013-02-01 03:15:00
9:35 PM,-14.8,-20.2,77,30.11,3.0,WNW,16.1,20.7,N/A,,Overcast,300,2013-02-01 03:35:00
9:55 PM,-16.6,-20.2,84,30.12,4.0,WNW,12.7,19.6,N/A,,Overcast,300,2013-02-01 03:55:00
10:15 PM,-16.6,-20.2,84,30.12,7.0,NW,13.8,23.0,N/A,,Partly Cloudy,310,2013-02-01 04:15:00
10:35 PM,-16.6,-23.8,70,30.12,10.0,NW,11.5,19.6,N/A,,Clear,310,2013-02-01 04:35:00
10:55 PM,-16.6,-23.8,70,30.12,10.0,WNW,13.8,-,N/A,,Clear,300,2013-02-01 04:55:00
11:15 PM,-18.4,-23.8,76,30.13,10.0,WNW,9.2,-,N/A,,Clear,300,2013-02-01 05:15:00
11:35 PM,-18.4,-23.8,76,30.13,10.0,WNW,11.5,-,N/A,,Clear,300,2013-02-01 05:35:00
11:55 PM,-18.4,-23.8,76,30.13,10.0,WNW,13.8,17.3,N/A,,Clear,300,2013-02-01 05:55:00